• Em Portugal
  • Lista de países
  • Para 7 dias
  • Temperatura da água
  • Mapas de satélite
  • Mapa do tempo
  • Widgets de tempo
  • user-avatar
    Iniciar Sessão

    Previsão horária em Utena

    Hoje, 20 Agosto, Segunda-feira

    Tempo Temperatura Precipitação Vento Pressão Humidade
    00:00 +17°C° 0 mm 2 m/s 753 mmHg 89%
    01:00 +17°C° 0 mm 2 m/s 753 mmHg 88%
    02:00 +17°C° 0 mm 2 m/s 753 mmHg 87%
    03:00 +17°C° 0 mm 2 m/s 752 mmHg 87%
    04:00 +16°C° 0 mm 2 m/s 752 mmHg 87%
    05:00 +16°C° 0 mm 2 m/s 752 mmHg 88%
    06:00 +17°C° 0 mm 2 m/s 751 mmHg 84%
    07:00 +19°C° 0 mm 2 m/s 751 mmHg 81%
    08:00 +20°C° 0 mm 2 m/s 751 mmHg 77%
    09:00 +21°C° 0 mm 3 m/s 751 mmHg 72%
    10:00 +24°C° 0 mm 3 m/s 750 mmHg 68%
    11:00 +25°C° 0 mm 4 m/s 750 mmHg 63%
    12:00 +26°C° 0 mm 4 m/s 750 mmHg 60%
    13:00 +27°C° 0 mm 4 m/s 749 mmHg 57%
    14:00 +28°C° 0 mm 5 m/s 749 mmHg 54%
    15:00 +28°C° 0,1 mm 5 m/s 748 mmHg 57%
    16:00 +27°C° 0,1 mm 4 m/s 747 mmHg 60%
    17:00 +27°C° 0,1 mm 4 m/s 747 mmHg 64%
    18:00 +25°C° 0,5 mm 4 m/s 747 mmHg 72%
    19:00 +22°C° 0,5 mm 4 m/s 746 mmHg 80%
    20:00 +20°C° 0,5 mm 3 m/s 746 mmHg 88%
    21:00 +19°C° 0,1 mm 4 m/s 746 mmHg 90%
    22:00 +19°C° 0,1 mm 4 m/s 746 mmHg 92%
    23:00 +18°C° 0,1 mm 4 m/s 746 mmHg 94%

    Amanhã, 21 Agosto, Terça-feira

    Tempo Temperatura Precipitação Vento Pressão Humidade
    00:00 +18°C° 0 mm 4 m/s 746 mmHg 94%
    01:00 +17°C° 0 mm 5 m/s 746 mmHg 94%
    02:00 +16°C° 0 mm 5 m/s 746 mmHg 94%
    03:00 +17°C° 0,1 mm 4 m/s 746 mmHg 94%
    04:00 +15°C° 0,1 mm 4 m/s 747 mmHg 95%
    05:00 +15°C° 0,1 mm 4 m/s 747 mmHg 95%
    06:00 +15°C° 0 mm 4 m/s 747 mmHg 92%
    07:00 +17°C° 0 mm 4 m/s 748 mmHg 89%
    08:00 +17°C° 0 mm 4 m/s 748 mmHg 86%
    09:00 +18°C° 0,1 mm 4 m/s 749 mmHg 79%
    10:00 +19°C° 0,1 mm 4 m/s 749 mmHg 72%
    11:00 +20°C° 0,1 mm 5 m/s 750 mmHg 65%
    12:00 +20°C° 0,1 mm 5 m/s 750 mmHg 62%
    13:00 +21°C° 0,1 mm 5 m/s 750 mmHg 59%
    14:00 +21°C° 0,1 mm 5 m/s 750 mmHg 55%
    15:00 +21°C° 0 mm 5 m/s 751 mmHg 56%
    16:00 +20°C° 0 mm 5 m/s 751 mmHg 57%
    17:00 +20°C° 0 mm 5 m/s 751 mmHg 58%
    18:00 +18°C° 0 mm 4 m/s 752 mmHg 64%
    19:00 +17°C° 0 mm 3 m/s 752 mmHg 70%
    20:00 +14°C° 0 mm 3 m/s 753 mmHg 75%
    21:00 +13°C° 0 mm 3 m/s 753 mmHg 78%
    22:00 +12°C° 0 mm 3 m/s 754 mmHg 82%
    23:00 +11°C° 0 mm 3 m/s 754 mmHg 85%

    Depois de amanhã, 22 Agosto, Quarta-feira

    Tempo Temperatura Precipitação Vento Pressão Humidade
    00:00 +12°C° 0 mm 2 m/s 755 mmHg 87%
    01:00 +10°C° 0 mm 2 m/s 755 mmHg 89%
    02:00 +9°C° 0 mm 2 m/s 755 mmHg 92%
    03:00 +9°C° 0 mm 2 m/s 756 mmHg 91%
    04:00 +9°C° 0 mm 2 m/s 756 mmHg 91%
    05:00 +8°C° 0 mm 2 m/s 756 mmHg 91%
    06:00 +10°C° 0 mm 2 m/s 757 mmHg 84%
    07:00 +12°C° 0 mm 2 m/s 757 mmHg 77%
    08:00 +13°C° 0 mm 3 m/s 757 mmHg 70%
    09:00 +14°C° 0 mm 3 m/s 757 mmHg 64%
    10:00 +17°C° 0 mm 3 m/s 758 mmHg 59%
    11:00 +18°C° 0 mm 3 m/s 758 mmHg 53%
    12:00 +19°C° 0 mm 3 m/s 758 mmHg 52%
    13:00 +19°C° 0 mm 3 m/s 758 mmHg 51%
    14:00 +20°C° 0 mm 3 m/s 757 mmHg 50%
    15:00 +20°C° 0 mm 2 m/s 757 mmHg 51%
    16:00 +20°C° 0 mm 2 m/s 757 mmHg 53%
    17:00 +20°C° 0 mm 2 m/s 757 mmHg 54%
    18:00 +19°C° 0 mm 1 m/s 757 mmHg 61%
    19:00 +16°C° 0 mm 1 m/s 757 mmHg 68%
    20:00 +14°C° 0 mm 1 m/s 757 mmHg 75%
    21:00 +13°C° 0 mm 1 m/s 757 mmHg 76%
    22:00 +13°C° 0 mm 1 m/s 757 mmHg 77%
    23:00 +12°C° 0 mm 1 m/s 757 mmHg 79%

    23 Agosto, Quinta-feira

    Tempo Temperatura Precipitação Vento Pressão Humidade
    00:00 +12°C° 0 mm 2 m/s 757 mmHg 80%
    01:00 +12°C° 0 mm 2 m/s 757 mmHg 81%
    02:00 +10°C° 0 mm 2 m/s 757 mmHg 82%
    03:00 +10°C° 0 mm 2 m/s 757 mmHg 83%
    04:00 +10°C° 0 mm 2 m/s 757 mmHg 84%
    05:00 +10°C° 0 mm 3 m/s 757 mmHg 85%
    06:00 +11°C° 0 mm 3 m/s 756 mmHg 79%
    07:00 +13°C° 0 mm 3 m/s 756 mmHg 74%
    08:00 +14°C° 0 mm 4 m/s 756 mmHg 69%
    09:00 +17°C° 0 mm 4 m/s 756 mmHg 64%
    10:00 +19°C° 0 mm 4 m/s 756 mmHg 60%
    11:00 +20°C° 0 mm 4 m/s 755 mmHg 55%
    12:00 +21°C° 0 mm 4 m/s 755 mmHg 53%
    13:00 +22°C° 0 mm 4 m/s 755 mmHg 52%
    14:00 +23°C° 0 mm 4 m/s 754 mmHg 50%
    15:00 +22°C° 0 mm 4 m/s 754 mmHg 53%
    16:00 +22°C° 0 mm 3 m/s 754 mmHg 55%
    17:00 +22°C° 0 mm 3 m/s 753 mmHg 57%
    18:00 +20°C° 0 mm 3 m/s 753 mmHg 64%
    19:00 +19°C° 0 mm 3 m/s 753 mmHg 71%
    20:00 +17°C° 0 mm 3 m/s 753 mmHg 78%
    21:00 +16°C° 0 mm 3 m/s 752 mmHg 78%
    22:00 +16°C° 0 mm 3 m/s 752 mmHg 78%
    23:00 +15°C° 0 mm 4 m/s 752 mmHg 78%

    24 Agosto, Sexta-feira

    Tempo Temperatura Precipitação Vento Pressão Humidade
    00:00 +15°C° 0 mm 4 m/s 752 mmHg 77%
    01:00 +14°C° 0 mm 4 m/s 752 mmHg 76%
    02:00 +14°C° 0 mm 4 m/s 751 mmHg 75%
    03:00 +14°C° 0 mm 3 m/s 751 mmHg 77%
    04:00 +14°C° 0 mm 3 m/s 751 mmHg 79%
    05:00 +14°C° 0 mm 3 m/s 751 mmHg 81%
    06:00 +15°C° 0 mm 4 m/s 750 mmHg 79%
    07:00 +17°C° 0 mm 4 m/s 750 mmHg 77%
    08:00 +18°C° 0 mm 4 m/s 750 mmHg 76%
    09:00 +20°C° 0 mm 5 m/s 750 mmHg 73%
    10:00 +21°C° 0 mm 5 m/s 750 mmHg 69%
    11:00 +22°C° 0 mm 5 m/s 749 mmHg 66%
    12:00 +25°C° 0 mm 5 m/s 749 mmHg 64%
    13:00 +26°C° 0 mm 5 m/s 749 mmHg 62%
    14:00 +27°C° 0 mm 5 m/s 748 mmHg 59%
    15:00 +26°C° 0,3 mm 5 m/s 748 mmHg 63%
    16:00 +26°C° 0,3 mm 4 m/s 747 mmHg 67%
    17:00 +25°C° 0,3 mm 4 m/s 747 mmHg 71%
    18:00 +23°C° 1,1 mm 4 m/s 747 mmHg 77%
    19:00 +22°C° 1,1 mm 4 m/s 747 mmHg 83%
    20:00 +20°C° 1,1 mm 4 m/s 747 mmHg 89%
    21:00 +20°C° 1,3 mm 3 m/s 747 mmHg 91%
    22:00 +20°C° 1,3 mm 3 m/s 747 mmHg 93%
    23:00 +19°C° 1,3 mm 3 m/s 747 mmHg 94%

    25 Agosto, Sábado

    Tempo Temperatura Precipitação Vento Pressão Humidade
    00:00 +19°C° 1,7 mm 3 m/s 747 mmHg 95%
    01:00 +19°C° 1,7 mm 2 m/s 747 mmHg 96%
    02:00 +18°C° 1,7 mm 2 m/s 748 mmHg 97%
    03:00 +18°C° 0,2 mm 2 m/s 748 mmHg 97%
    04:00 +17°C° 0,2 mm 2 m/s 748 mmHg 97%
    05:00 +18°C° 0,2 mm 1 m/s 748 mmHg 97%
    06:00 +18°C° 0,1 mm 1 m/s 748 mmHg 96%
    07:00 +18°C° 0,1 mm 1 m/s 748 mmHg 95%
    08:00 +18°C° 0,1 mm 1 m/s 748 mmHg 94%
    09:00 +18°C° 0,3 mm 1 m/s 748 mmHg 94%
    10:00 +17°C° 0,3 mm 2 m/s 748 mmHg 94%
    11:00 +17°C° 0,3 mm 2 m/s 748 mmHg 93%
    12:00 +17°C° 0,6 mm 2 m/s 748 mmHg 94%
    13:00 +17°C° 0,6 mm 2 m/s 747 mmHg 94%
    14:00 +17°C° 0,6 mm 2 m/s 747 mmHg 94%
    15:00 +17°C° 0,7 mm 2 m/s 747 mmHg 94%
    16:00 +17°C° 0,7 mm 2 m/s 746 mmHg 94%
    17:00 +17°C° 0,7 mm 2 m/s 746 mmHg 94%
    18:00 +16°C° 1,1 mm 3 m/s 746 mmHg 94%
    19:00 +15°C° 1,1 mm 4 m/s 746 mmHg 94%
    20:00 +14°C° 1,1 mm 4 m/s 746 mmHg 95%
    21:00 +14°C° 0,8 mm 4 m/s 747 mmHg 95%
    22:00 +13°C° 0,8 mm 4 m/s 747 mmHg 95%
    23:00 +12°C° 0,8 mm 4 m/s 747 mmHg 95%
    Mostrar mais